CW2882 Weather Reports


Display with metric or nautical units.
time (UTC)temp
F
wind
direction
speed
MPH
gust
MPH
rain 1hr
in
rain 24hr
in
rain mn
in
humidity
%
barometer
mb
20260904204550 62 309 1.0 5.0 0.00 0.00 0.00 80 1014.6
20260904203050 64 342 2.0 5.0 0.00 0.00 0.00 76 1014.4
20260904201547 63 345 1.0 3.0 0.00 0.00 0.00 79 1014.5
20260904200054 63 312 0.0 6.0 0.00 0.00 0.00 79 1014.5
20260904194545 63 310 2.0 5.0 0.00 0.00 0.00 79 1014.4
20260904193043 61 303 1.0 4.0 0.00 0.00 0.00 82 1014.5
20260904191543 60 288 1.0 4.0 0.00 0.00 0.00 83 1014.6
20260904190044 60 304 1.0 6.0 0.00 0.00 0.00 83 1014.5
20260904184540 62 328 1.0 4.0 0.00 0.00 0.00 82 1014.4
20260904183053 62 23 0.0 4.0 0.00 0.00 0.00 84 1014.3
20260904181540 61 264 0.0 3.0 0.00 0.00 0.00 85 1014.3
20260904180032 59 250 0.0 0.0 0.00 0.00 0.00 90 1014.3
20260904174531 56 311 0.0 2.0 0.00 0.00 0.00 93 1014.4
20260904173026 55 356 0.0 2.0 0.00 0.00 0.00 94 1014.4
20260904171525 55 331 0.0 3.0 0.00 0.00 0.00 94 1014.2
20260904170025 56 310 1.0 3.0 0.00 0.00 0.00 95 1014.2
20260904164522 55 291 0.0 0.0 0.00 0.00 0.00 96 1014.1
20260904163021 54 291 0.0 0.0 0.00 0.00 0.00 96 1014.2
20260904161520 54 229 0.0 0.0 0.00 0.00 0.00 97 1014.3
20260904160016 54 229 0.0 0.0 0.00 0.00 0.00 96 1014.2
20260904154519 53 160 0.0 1.0 0.00 0.00 0.00 96 1014.1
20260904153025 53 137 0.0 1.0 0.00 0.00 0.00 96 1014.0
20260904151511 53 138 0.0 2.0 0.00 0.00 0.00 96 1013.8
20260904150008 53 133 0.0 1.0 0.00 0.01 0.00 96 1013.6
20260904144507 53 199 0.0 2.0 0.00 0.01 0.00 96 1013.4
20260904143009 53 177 1.0 4.0 0.00 0.01 0.00 95 1013.1
20260904141511 53 142 1.0 3.0 0.00 0.01 0.00 95 1013.0
20260904140001 53 188 0.0 1.0 0.00 0.03 0.00 95 1012.9
20260904134602 53 196 0.0 0.0 0.00 0.03 0.00 95 1012.7
20260904133100 53 139 0.0 0.0 0.00 0.03 0.00 95 1012.7
20260904131608 52 110 0.0 0.0 0.00 0.03 0.00 95 1012.6
20260904130055 52 110 0.0 0.0 0.00 0.03 0.00 95 1012.4
20260904124554 52 160 0.0 0.0 0.00 0.03 0.00 95 1012.3
20260904123054 52 160 0.0 0.0 0.00 0.03 0.00 95 1012.3
20260904121552 52 160 0.0 0.0 0.00 0.03 0.00 94 1012.2
20260904120050 52 167 0.0 0.0 0.00 0.03 0.00 94 1011.9
20260904114549 52 169 0.0 0.0 0.00 0.03 0.00 93 1011.8
20260904113048 52 142 0.0 0.0 0.00 0.03 0.00 93 1011.8
20260904111547 52 127 0.0 0.0 0.00 0.03 0.00 94 1011.5
20260904110046 52 129 0.0 0.0 0.00 0.03 0.00 94 1011.5
20260904104545 52 122 0.0 0.0 0.00 0.03 0.00 94 1011.6
20260904103053 52 122 0.0 0.0 0.00 0.03 0.00 94 1011.4
20260904101550 52 122 0.0 0.0 0.00 0.03 0.00 94 1011.4
20260904100042 52 122 0.0 0.0 0.00 0.03 0.00 94 1011.3
20260904094558 52 122 0.0 0.0 0.00 0.03 0.00 94 1011.4
20260904093041 52 122 0.0 0.0 0.00 0.03 0.00 94 1011.4
20260904091540 52 196 0.0 2.0 0.00 0.03 0.00 94 1011.4
20260904090038 52 115 1.0 2.0 0.00 0.03 0.00 94 1011.4
20260904084539 52 212 0.0 3.0 0.00 0.03 0.00 93 1011.3
20260904083042 51 147 0.0 0.0 0.00 0.03 0.00 92 1011.4
20260904081535 52 148 0.0 1.0 0.00 0.03 0.00 91 1011.5
20260904080033 53 205 0.0 3.0 0.00 0.03 0.00 91 1011.5
20260904074538 53 158 1.0 2.0 0.00 0.03 0.00 91 1011.5
20260904073031 53 143 0.0 3.0 0.00 0.03 0.00 91 1011.5
20260904071529 52 201 1.0 3.0 0.00 0.03 0.00 92 1011.4
20260904070027 53 146 1.0 3.0 0.00 0.03 0.03 92 1011.3
20260904064528 53 205 0.0 2.0 0.00 0.03 0.03 91 1011.2
20260904063025 53 177 1.0 3.0 0.00 0.03 0.03 91 1011.2
20260904061525 53 165 0.0 2.0 0.00 0.03 0.03 90 1011.1
20260904060021 54 177 1.0 2.0 0.00 0.03 0.03 89 1011.1
20260904054536 55 175 1.0 3.0 0.00 0.03 0.03 85 1011.0
20260904053034 56 187 0.0 0.0 0.00 0.03 0.03 82 1010.9
20260904051522 56 129 0.0 3.0 0.00 0.03 0.03 82 1011.0
20260904050030 56 147 0.0 2.0 0.00 0.03 0.03 82 1010.9
20260904044516 55 139 0.0 1.0 0.00 0.03 0.03 83 1010.9
20260904043029 56 143 0.0 0.0 0.00 0.03 0.03 82 1010.8
20260904041516 57 143 0.0 0.0 0.00 0.03 0.03 82 1010.8
20260904040014 57 150 0.0 0.0 0.00 0.03 0.03 81 1010.8
20260904034512 57 150 0.0 0.0 0.00 0.03 0.03 81 1010.8
20260904033021 58 150 0.0 0.0 0.00 0.03 0.03 81 1010.7
20260904031509 59 160 0.0 0.0 0.00 0.03 0.03 79 1010.5
20260904030008 60 226 0.0 1.0 0.00 0.03 0.03 76 1010.4
20260904024508 61 226 0.0 0.0 0.00 0.03 0.03 75 1010.3
20260904023007 63 226 0.0 1.0 0.00 0.03 0.03 72 1010.2
20260904021513 65 237 0.0 2.0 0.00 0.03 0.03 70 1010.1
20260904020004 64 243 0.0 3.0 0.00 0.03 0.03 71 1010.1
20260904014504 66 233 0.0 1.0 0.00 0.03 0.03 68 1010.1
20260904013004 66 236 0.0 2.0 0.00 0.03 0.03 69 1010.0
20260904011503 65 226 0.0 4.0 0.00 0.03 0.03 69 1010.0
20260904010005 65 200 2.0 4.0 0.00 0.09 0.03 68 1010.0
20260904004502 64 240 2.0 7.0 0.00 0.09 0.03 70 1010.0
20260904003002 65 252 1.0 6.0 0.00 0.09 0.03 70 1010.0
20260904001500 66 150 1.0 5.0 0.00 0.09 0.03 68 1009.9
20260904000100 65 262 3.0 8.0 0.00 0.13 0.03 68 1009.9
20260903234600 67 247 1.0 6.0 0.00 0.13 0.03 66 1009.9
20260903233103 67 160 1.0 6.0 0.00 0.13 0.03 62 1009.8
20260903231559 67 214 3.0 7.0 0.00 0.13 0.03 61 1009.9
20260903224556 67 238 3.0 11.0 0.00 0.13 0.03 61 1010.1
20260903223107 67 148 2.0 9.0 0.00 0.13 0.03 61 1010.2
20260903221554 67 254 3.0 10.0 0.00 0.13 0.03 62 1010.2
20260903220053 68 124 4.0 8.0 0.00 0.13 0.03 61 1010.2
20260903214553 67 226 4.0 9.0 0.00 0.13 0.03 61 1010.2
20260903213051 67 110 2.0 9.0 0.00 0.13 0.03 64 1010.3
20260903211604 66 155 1.0 8.0 0.00 0.13 0.03 64 1010.2
20260903210049 66 148 1.0 10.0 0.00 0.13 0.03 65 1010.1